FW8889 Weather Reports


time (UTC)temp
C
wind
direction
speed
KPH
gust
KPH
rain 1hr
cm
rain 24hr
cm
rain mn
cm
humidity
%
barometer
mb
20260503191635 12 321 1.6 11.3 0.00 0.00 0.00 44 1006.3
20260503190049 12 205 3.2 16.1 0.00 0.00 0.00 48 1006.6
20260503184558 11 223 3.2 19.3 0.00 0.00 0.00 47 1006.5
20260503183100 10 215 3.2 17.7 0.00 0.00 0.00 49 1006.7
20260503181551 10 306 3.2 24.1 0.00 0.00 0.00 51 1006.7
20260503180046 10 360 4.8 16.1 0.00 0.00 0.00 53 1006.5
20260503174548 10 310 1.6 11.3 0.00 0.00 0.00 57 1006.6
20260503173112 10 321 1.6 9.7 0.00 0.00 0.00 58 1006.4
20260503171550 10 0 0.0 14.5 0.00 0.00 0.00 63 1006.5
20260503120106 6 0 1.6 4.8 0.00 0.10 0.00 85 1007.5
20260503081549 6 0 0.0 1.6 0.00 0.15 0.00 86 1008.7
20260503071548 6 0 0.0 6.4 0.00 0.15 0.00 86 1009.0
20260503054552 7 0 0.0 4.8 0.00 0.15 0.00 85 1009.9
20260503053054 7 290 0.0 3.2 0.00 0.15 0.00 86 1010.0
20260503051553 8 0 0.0 4.8 0.00 0.15 0.00 87 1010.1
20260503050049 8 0 0.0 4.8 0.00 0.15 0.00 87 1010.3
20260503044550 8 0 0.0 3.2 0.00 0.15 0.00 87 1010.3
20260503043049 8 0 0.0 1.6 0.00 0.15 0.00 87 1010.8
20260503041605 8 0 0.0 1.6 0.00 0.15 0.00 87 1010.9
20260503040058 8 0 0.0 1.6 0.00 0.15 0.00 87 1011.0
20260503034607 8 0 0.0 1.6 0.00 0.15 0.15 87 1011.0
20260503033056 8 0 0.0 1.6 0.00 0.15 0.15 87 1011.1
20260503031548 8 0 0.0 1.6 0.00 0.15 0.15 87 1011.2
20260503030054 8 0 0.0 3.2 0.00 0.15 0.15 87 1011.1
20260503024552 8 0 0.0 1.6 0.00 0.15 0.15 87 1011.1
20260503023049 8 0 0.0 1.6 0.00 0.15 0.15 87 1011.1
20260503021552 9 0 0.0 3.2 0.00 0.15 0.15 87 1011.2
20260503020049 9 0 0.0 1.6 0.00 0.15 0.15 87 1011.2
20260503014554 9 304 0.0 3.2 0.00 0.15 0.15 87 1011.3
20260503013054 9 0 0.0 1.6 0.00 0.15 0.15 87 1011.4
20260503011548 9 0 0.0 0.0 0.00 0.15 0.15 86 1011.5
20260503010054 9 0 0.0 1.6 0.00 0.15 0.15 86 1011.5
20260503004552 9 0 0.0 3.2 0.00 0.15 0.15 86 1011.6
20260503003051 9 0 0.0 0.0 0.00 0.15 0.15 86 1011.7
20260503001608 9 0 0.0 0.0 0.00 0.15 0.15 85 1011.5
20260503000109 10 0 0.0 0.0 0.00 0.15 0.15 85 1011.2
20260502234608 10 0 0.0 1.6 0.00 0.15 0.15 85 1011.1
20260502233056 10 0 0.0 1.6 0.00 0.15 0.15 85 1011.0
20260502231606 10 0 0.0 1.6 0.00 0.15 0.15 84 1011.0
20260502230052 10 0 0.0 1.6 0.00 0.15 0.15 83 1011.0
20260502224552 10 0 0.0 4.8 0.00 0.15 0.15 82 1010.9
20260502223049 11 29 0.0 3.2 0.00 0.15 0.15 80 1010.9
20260502221552 11 355 0.0 3.2 0.00 0.15 0.15 80 1010.9
20260502220059 11 348 0.0 6.4 0.00 0.15 0.15 77 1010.9
20260502214553 12 117 0.0 4.8 0.00 0.15 0.15 74 1010.9
20260502213051 12 0 1.6 4.8 0.00 0.15 0.15 68 1010.8
20260502211549 13 74 0.0 4.8 0.00 0.15 0.15 64 1010.6
20260502210059 13 316 1.6 6.4 0.00 0.15 0.15 64 1010.6
20260502204551 13 0 1.6 9.7 0.00 0.15 0.15 65 1010.6
20260502203051 13 234 3.2 11.3 0.00 0.15 0.15 64 1010.7
20260502201547 13 213 1.6 11.3 0.00 0.15 0.15 63 1010.7
20260502200056 13 142 1.6 9.7 0.00 0.15 0.15 63 1010.6
20260502194550 13 145 1.6 6.4 0.00 0.15 0.15 62 1010.8
20260502193050 13 240 3.2 12.9 0.00 0.15 0.15 63 1011.0